Weather History for Mackinac Island, MI

Change the Weather History Date:

Thursday, February 7, 2013

  Actual Average Record
Temperature  
Mean Temperature 16 °F -  
Max Temperature 19 °F 25 °F 42 °F (2009)
Min Temperature 13 °F 13 °F -12 °F (1977)
Degree Days  
Heating Degree Days 49    
Moisture  
Dew Point 13 °F    
Average Humidity 89    
Maximum Humidity 92    
Minimum Humidity 86    
Precipitation  
Precipitation 0.00 in - - ()
Sea Level Pressure  
Sea Level Pressure 30.17 in    
Wind  
Wind Speed 15 mph (ENE)    
Max Wind Speed 22 mph    
Max Gust Speed 29 mph    
Visibility 4 miles    
Events Snow    
Averages and records for this station are not official NWS values.
T = Trace of Precipitation, MM = Missing Value Source: NWS Daily Summary

Daily Weather History Graph

Daily Weather History Graph

Search for Another Location

Airport:

Trip Planner

Search our weather history database for the weather conditions in past years. The results will help you decide how hot, cold, wet, or windy it might be!

Date:

Astronomy

Feb. 07, 2013 Rise Set
Actual Time 7:52 AM EST 5:53 PM EST
Civil Twilight 7:21 AM EST 6:24 PM EST
Nautical Twilight 6:45 AM EST 7:00 PM EST
Astronomical Twilight 6:11 AM EST 7:34 PM EST
Moon 5:36 AM EST (2/7) 3:12 PM EST (2/7)
Length of Visible Light 11h 03m
Length of Day
10h 01m
Waning Crescent, 9% of the Moon is Illuminated
Feb 7
Waning Crescent
Feb 10
New
Feb 17
First Quarter
Feb 25
Full
Mar 4
Last Quarter

Hourly Weather History & Observations

Time (EST) Temp. Windchill Dew Point Humidity Pressure Visibility Wind Dir Wind Speed Gust Speed Precip Events Conditions
1:14 AM 16.2 °F 3.2 °F 13.8 °F 90% 30.21 in 4.0 mi ENE 11.5 mph - N/A Snow Light Snow
1:34 AM 16.2 °F 4.7 °F 14.0 °F 91% 30.21 in 3.0 mi ENE 9.2 mph - N/A Snow Light Snow
2:34 AM 16.7 °F 3.8 °F 14.7 °F 92% 30.20 in 3.0 mi ENE 11.5 mph 18.4 mph N/A Snow Light Snow
2:54 AM 17.6 °F 3.7 °F 15.6 °F 92% 30.20 in 5.0 mi ENE 13.8 mph 19.6 mph N/A Snow Light Snow
3:14 AM 17.8 °F 4.6 °F 15.8 °F 92% 30.21 in 4.0 mi ENE 12.7 mph 20.7 mph N/A Snow Light Snow
3:54 AM 17.4 °F 2.4 °F 15.3 °F 91% 30.20 in 1.5 mi ENE 16.1 mph 21.9 mph N/A Snow Light Snow
4:14 AM 17.6 °F 4.3 °F 15.4 °F 91% 30.19 in 1.5 mi East 12.7 mph 19.6 mph N/A Snow Light Snow
4:34 AM 17.8 °F 4.6 °F 15.6 °F 91% 30.20 in 3.0 mi East 12.7 mph 20.7 mph N/A Snow Light Snow
4:54 AM 17.6 °F 4.3 °F 15.4 °F 91% 30.20 in 2.5 mi East 12.7 mph 18.4 mph N/A Snow Light Snow
5:14 AM 18.1 °F 4.4 °F 15.8 °F 91% 30.20 in 2.0 mi ENE 13.8 mph 19.6 mph N/A Snow Light Snow
5:34 AM 18.3 °F 4.1 °F 16.3 °F 92% 30.19 in 3.0 mi ENE 15.0 mph 20.7 mph N/A Snow Light Snow
5:54 AM 19.0 °F 9.0 °F 17.1 °F 92% 30.19 in 5.0 mi ENE 8.1 mph 20.7 mph N/A Snow Light Snow
6:34 AM 18.5 °F 4.3 °F 16.5 °F 92% 30.19 in 4.0 mi ENE 15.0 mph 23.0 mph N/A Snow Light Snow
6:54 AM 17.6 °F 3.2 °F 15.6 °F 92% 30.18 in 3.0 mi ENE 15.0 mph 23.0 mph N/A Snow Light Snow
7:14 AM 17.4 °F 4.1 °F 15.3 °F 91% 30.19 in 4.0 mi East 12.7 mph 24.2 mph N/A Snow Light Snow
7:34 AM 17.1 °F 2.0 °F 14.9 °F 91% 30.19 in 5.0 mi ENE 16.1 mph 24.2 mph N/A   Overcast
7:54 AM 16.7 °F 2.6 °F 14.7 °F 92% 30.19 in 5.0 mi East 13.8 mph 24.2 mph N/A Snow Light Snow
8:14 AM 17.1 °F 1.5 °F 14.9 °F 91% 30.20 in 3.0 mi ENE 17.3 mph 25.3 mph N/A Snow Light Snow
8:34 AM 16.9 °F 0.3 °F 14.7 °F 91% 30.20 in 4.0 mi East 19.6 mph 26.5 mph N/A Snow Light Snow
8:54 AM 16.9 °F 2.3 °F 14.9 °F 92% 30.20 in 3.0 mi East 15.0 mph 25.3 mph N/A Snow Light Snow
9:34 AM 15.8 °F 0.9 °F 13.6 °F 91% 30.20 in 1.8 mi ENE 15.0 mph 25.3 mph N/A Snow Light Snow
9:54 AM 15.4 °F -0.6 °F 13.1 °F 90% 30.20 in 2.0 mi ENE 17.3 mph 28.8 mph N/A Snow Light Snow
10:14 AM 14.7 °F -1.1 °F 12.4 °F 90% 30.20 in 1.8 mi ENE 16.1 mph 25.3 mph N/A Snow Light Snow
11:14 AM 14.5 °F -1.8 °F 11.8 °F 89% 30.20 in 1.5 mi ENE 17.3 mph 24.2 mph N/A Snow Light Snow
11:34 AM 14.4 °F -3.0 °F 11.5 °F 88% 30.20 in 1.5 mi ENE 19.6 mph 27.6 mph N/A Snow Light Snow
11:54 AM 14.2 °F -2.7 °F 11.5 °F 89% 30.20 in 2.0 mi ENE 18.4 mph 25.3 mph N/A Snow Light Snow
12:14 PM 13.8 °F -2.7 °F 10.9 °F 88% 30.19 in 2.0 mi ENE 17.3 mph 25.3 mph N/A Snow Light Snow
12:34 PM 13.3 °F -3.4 °F 10.4 °F 88% 30.18 in 2.0 mi ENE 17.3 mph 23.0 mph N/A Snow Light Snow
12:54 PM 13.1 °F -3.7 °F 10.2 °F 88% 30.18 in 1.8 mi ENE 17.3 mph 24.2 mph N/A Snow Light Snow
1:14 PM 13.1 °F -4.2 °F 10.0 °F 88% 30.17 in 1.5 mi ENE 18.4 mph 25.3 mph N/A Snow Light Snow
1:34 PM 13.1 °F -4.6 °F 9.7 °F 86% 30.16 in 1.8 mi ENE 19.6 mph 23.0 mph N/A Snow Light Snow
1:54 PM 13.3 °F -3.9 °F 9.9 °F 86% 30.16 in 2.0 mi ENE 18.4 mph 24.2 mph N/A Snow Light Snow
2:14 PM 13.1 °F -4.2 °F 9.7 °F 86% 30.15 in 2.0 mi ENE 18.4 mph 25.3 mph N/A Snow Light Snow
2:34 PM 13.1 °F -4.2 °F 9.5 °F 86% 30.15 in 2.5 mi ENE 18.4 mph 25.3 mph N/A Snow Light Snow
3:34 PM 13.8 °F -2.2 °F 10.2 °F 86% 30.14 in 3.0 mi ENE 16.1 mph 23.0 mph N/A Snow Light Snow
3:54 PM 13.8 °F -2.2 °F 10.4 °F 86% 30.14 in 3.0 mi ENE 16.1 mph 21.9 mph N/A Snow Light Snow
4:34 PM 14.4 °F -1.5 °F 10.9 °F 86% 30.14 in 5.0 mi ENE 16.1 mph 20.7 mph N/A   Overcast
5:34 PM 14.7 °F -1.1 °F 11.3 °F 86% 30.12 in 10.0 mi NE 16.1 mph 23.0 mph N/A   Overcast
5:54 PM 14.9 °F -1.8 °F 11.8 °F 88% 30.12 in 7.0 mi NE 18.4 mph - N/A Snow Light Snow
6:14 PM 14.9 °F -2.7 °F 11.8 °F 88% 30.13 in 7.0 mi NE 20.7 mph - N/A Snow Light Snow
6:54 PM 15.4 °F -1.1 °F 12.2 °F 87% 30.12 in 4.0 mi NE 18.4 mph - N/A Snow Light Snow
7:34 PM 15.8 °F -1.9 °F 12.9 °F 88% 30.12 in 1.8 mi NE 21.9 mph - N/A Snow Light Snow
7:54 PM 16.3 °F -0.8 °F 13.1 °F 87% 30.12 in 2.5 mi NE 20.7 mph - N/A Snow Light Snow
8:14 PM 16.5 °F -0.1 °F 13.1 °F 86% 30.13 in 4.0 mi NE 19.6 mph - N/A Snow Light Snow
9:34 PM 17.4 °F 1.9 °F 14.0 °F 86% 30.13 in 10.0 mi ENE 17.3 mph 23.0 mph N/A   Overcast
9:54 PM 17.4 °F 0.6 °F 14.0 °F 86% 30.12 in 10.0 mi NE 20.7 mph 25.3 mph N/A   Overcast
10:34 PM 17.6 °F 2.2 °F 14.0 °F 86% 30.13 in 10.0 mi NE 17.3 mph - N/A   Overcast
11:14 PM 17.4 °F 1.5 °F 14.0 °F 86% 30.13 in 10.0 mi ENE 18.4 mph 23.0 mph N/A Snow Light Snow